Content
SEND FEEDBACK

United States of America Flag

HAY SPRINGS, NEBRASKA


Home > North America > United States > Nebraska
Elevation: 3839 feet     Latitude: 42 41N     Longitude: 102 41W

WEATHER
 
SELECT A DAY
Number of Records: 185,645;   Date Range: 1/1/95 - 3/21/16
 
SHARE

PRINT THIS DATA

[ ← Previous Day ]
WEATHER ALMANAC - FEBRUARY 1, 2013
[ Next Day → ]
[ °C ]   °F
Weather ElementAverageHighLow
Temperature34.6 °F39.9 °F (11:53 am)28 °F (7:53 am)
Dewpoint27.2 °F30.9 °F (2:53 pm)21.9 °F (6:53 am)
Humidity74.7 %85 % (7:53 pm)62 % (10:53 am)
Barometer30.14 in30.21 in (9:53 pm)30.06 in (12:53 pm)
Wind Speed12.6 mph20.7 mph (2:53 pm)
Wind Gust19.6 mph (5:53 pm)
Weather ElementAverage
Visibility9.9 mi
Wind DirectionW (271.8 °)

Weather ElementTotal
Precipitation---
Heating Degree Days31.1 (Base 65)
Averaged from 22 records on February 1, 2013
WEATHER CONDITIONS BREAKOUT
WIND DIRECTION BREAKOUT
WEATHER BY HOUR - FEBRUARY 1, 2013
[ °C ]   °F
Local TimeTemperatureDewpointHumidityBarometerVisibilityWind DirectionWind SpeedGust SpeedPrecipitationEventsConditions
1:53 AM30.0 °F23.0 °F75 %30.19 in10.0 miWSW (240°)9.2 mphOvercast
2:53 AM30.9 °F23.0 °F72 %30.17 in10.0 miWest (260°)11.5 mphOvercast
3:53 AM32.0 °F23.0 °F69 %30.14 in10.0 miWSW (250°)12.7 mphOvercast
5:53 AM30.0 °F23.0 °F75 %30.13 in10.0 miWSW (250°)11.5 mphScattered Clouds
6:53 AM28.9 °F21.9 °F75 %30.13 in10.0 miWSW (240°)13.8 mphScattered Clouds
7:53 AM28.0 °F21.9 °F78 %30.13 in9.0 miWSW (250°)8.1 mphMostly Cloudy
8:53 AM30.9 °F24.1 °F76 %30.13 in9.0 miSW (230°)9.2 mphMostly Cloudy
9:53 AM36.0 °F27.0 °F70 %30.10 in10.0 miWest (280°)13.8 mphMostly Cloudy
10:53 AM37.9 °F26.1 °F62 %30.09 in10.0 miWest (280°)16.1 mphOvercast
11:53 AM39.9 °F28.9 °F65 %30.09 in10.0 miWest (280°)8.1 mphPartly Cloudy
12:53 PM39.0 °F30.0 °F70 %30.06 in10.0 miWNW (290°)10.4 mphOvercast
1:53 PM39.9 °F28.9 °F65 %30.07 in10.0 miWNW (300°)11.5 mphMostly Cloudy
2:53 PM37.9 °F30.9 °F76 %30.09 in10.0 miWNW (300°)20.7 mphOvercast
3:53 PM37.9 °F30.9 °F76 %30.10 in10.0 miWNW (290°)12.7 mphClear
4:53 PM37.9 °F30.9 °F76 %30.12 in10.0 miWNW (300°)15.0 mphOvercast
5:53 PM37.0 °F30.0 °F76 %30.15 in10.0 miNW (320°)11.5 mph19.6 mphScattered Clouds
6:53 PM34.0 °F28.9 °F82 %30.19 in10.0 miWest (270°)6.9 mphMostly Cloudy
7:53 PM33.1 °F28.9 °F85 %30.20 in10.0 miWest (260°)9.2 mphMostly Cloudy
8:53 PM35.1 °F28.9 °F78 %30.19 in10.0 miWest (270°)15.0 mphOvercast
9:53 PM35.1 °F30.0 °F82 %30.21 in10.0 miWest (280°)18.4 mphOvercast
10:53 PM35.1 °F30.0 °F82 %30.21 in10.0 miWest (270°)12.7 mphOvercast
11:53 PM34.0 °F28.0 °F79 %30.21 in10.0 miWest (270°)18.4 mphScattered Clouds
Hourly data recorded from KCDR, located miles away from Hay Springs, Nebraska




STORIES FROM OUR PARTNERS